Weather History for Cairns Airport, Queensland

Change the Weather History Date:

Thursday, October 11, 2012

  Actual Average Record
Temperature  
Mean Temperature 77 °F -  
Max Temperature 86 °F 86 °F - ()
Min Temperature 68 °F 70 °F - ()
Cooling Degree Days 12    
Growing Degree Days 27 (Base 50)    
Moisture  
Dew Point 69 °F    
Average Humidity 72    
Maximum Humidity 94    
Minimum Humidity 41    
Precipitation  
Precipitation 0.00 in 0.08 in - ()
Sea Level Pressure  
Sea Level Pressure 29.92 in    
Wind  
Wind Speed 3 mph ()    
Max Wind Speed 13 mph    
Max Gust Speed -    
Visibility 7.1 miles    
Events      
T = Trace of Precipitation, MM = Missing Value Source: Averaged Metar Reports

Daily Weather History Graph

Daily Weather History Graph

Search for Another Location

Airport:

Trip Planner

Search our weather history database for the weather conditions in past years. The results will help you decide how hot, cold, wet, or windy it might be!

Date:

Astronomy

Oct. 11, 2012 Rise Set
Actual Time 5:51 AM EST 6:16 PM EST
Civil Twilight 5:29 AM EST 6:37 PM EST
Nautical Twilight 5:04 AM EST 7:03 PM EST
Astronomical Twilight 4:38 AM EST 7:29 PM EST
Moon 2:16 AM EST (10/11) 2:12 PM EST (10/11)
Length of Visible Light 13h 07m
Length of Day
12h 24m
Waning Crescent, 23% of the Moon is Illuminated
Oct 11
Waning Crescent
Oct 15
New
Oct 22
First Quarter
Oct 30
Full
Nov 7
Last Quarter

Hourly Weather History & Observations

Time (EST) Temp. Heat Index Dew Point Humidity Pressure Visibility Wind Dir Wind Speed Gust Speed Precip Events Conditions
12:00 AM 71 °F - 69 °F 90% 29.91 in - Calm Calm - -  
12:00 AM 71.6 °F - 68.0 °F 88% 29.89 in - Calm Calm - N/A   Clear
12:30 AM 69.8 °F - 68.0 °F 94% 29.89 in - Calm Calm - N/A   Clear
1:00 AM 69 °F - 68 °F 94% 29.90 in - Calm Calm - -  
1:00 AM 69.8 °F - 68.0 °F 94% 29.89 in - Calm Calm - N/A   Clear
1:30 AM 69.8 °F - 68.0 °F 94% 29.89 in - Calm Calm - N/A   Clear
2:00 AM 69.8 °F - 68.0 °F 94% 29.86 in - Calm Calm - N/A   Clear
2:30 AM 69.8 °F - 68.0 °F 94% 29.86 in 6.2 mi Calm Calm - N/A   Scattered Clouds
3:00 AM 70 °F - 68 °F 93% 29.87 in - Calm Calm - -  
3:00 AM 69.8 °F - 68.0 °F 94% 29.86 in 6.2 mi Calm Calm - N/A   Overcast
3:30 AM 71.6 °F - 68.0 °F 88% 29.86 in 6.2 mi Calm Calm - N/A   Mostly Cloudy
4:00 AM 71 °F - 68 °F 89% 29.89 in - Calm Calm - -  
4:00 AM 71.6 °F - 68.0 °F 88% 29.89 in 6.2 mi Calm Calm - N/A   Mostly Cloudy
5:00 AM 71.6 °F - 68.0 °F 88% 29.89 in 6.2 mi Calm Calm - N/A   Mostly Cloudy
5:30 AM 71.6 °F - 68.0 °F 88% 29.89 in 6.2 mi Calm Calm - N/A   Scattered Clouds
6:00 AM 70 °F - 68 °F 91% 29.91 in 19 mi North 2.3 mph - -   Partly Cloudy
6:00 AM 69.8 °F - 68.0 °F 94% 29.89 in 6.2 mi North 2.3 mph - N/A   Partly Cloudy
6:30 AM 71.6 °F - 68.0 °F 88% 29.92 in 6.2 mi WNW 1.2 mph - N/A   Partly Cloudy
7:00 AM 74 °F - 70 °F 82% 29.95 in - Calm Calm - -  
7:00 AM 75.2 °F - 69.8 °F 83% 29.92 in 6.2 mi Calm Calm - N/A   Partly Cloudy
7:30 AM 77.0 °F - 68.0 °F 74% 29.95 in 6.2 mi WSW 4.6 mph - N/A   Scattered Clouds
8:00 AM 77.0 °F - 68.0 °F 74% 29.95 in 6.2 mi NW 2.3 mph - N/A   Scattered Clouds
8:30 AM 82.4 °F 84.6 °F 66.2 °F 58% 29.95 in 6.2 mi South 3.5 mph - N/A   Scattered Clouds
9:00 AM 82.4 °F 84.6 °F 66.2 °F 58% 29.95 in 6.2 mi SSE 8.1 mph - N/A   Partly Cloudy
9:30 AM 86.0 °F 88.2 °F 66.2 °F 51% 29.95 in 6.2 mi SSE 3.5 mph - N/A   Partly Cloudy
10:00 AM 85 °F - 65 °F 41% 29.96 in - SE 5.8 mph - -  
10:00 AM 86.0 °F 87.3 °F 64.4 °F 48% 29.95 in 6.2 mi SE 5.8 mph - N/A   Partly Cloudy
10:30 AM 86.0 °F 87.3 °F 64.4 °F 48% 29.95 in 6.2 mi NNE 5.8 mph - N/A   Partly Cloudy
11:00 AM 86.0 °F 90.4 °F 69.8 °F 58% 29.95 in 6.2 mi NE 10.4 mph - N/A   Partly Cloudy
11:30 AM 84.2 °F 87.3 °F 68.0 °F 58% 29.92 in 6.2 mi ENE 12.7 mph - N/A   Partly Cloudy
12:00 PM 85 °F - 69 °F 50% 29.93 in 19 mi ENE 11.5 mph - -   Partly Cloudy
12:00 PM 84.2 °F 88.4 °F 69.8 °F 62% 29.92 in 6.2 mi ENE 11.5 mph - N/A   Partly Cloudy
12:30 PM 86.0 °F 90.4 °F 69.8 °F 58% 29.92 in 6.2 mi NE 10.4 mph - N/A   Partly Cloudy
1:00 PM 85 °F - 70 °F 51% 29.90 in - NE 10.4 mph - -  
1:00 PM 86.0 °F 90.4 °F 69.8 °F 58% 29.89 in 6.2 mi NE 10.4 mph - N/A   Partly Cloudy
1:30 PM 86.0 °F 90.4 °F 69.8 °F 58% 29.86 in 6.2 mi NE 11.5 mph - N/A   Partly Cloudy
2:00 PM 84.2 °F 88.4 °F 69.8 °F 62% 29.86 in 6.2 mi NE 10.4 mph - N/A   Partly Cloudy
2:30 PM 86.0 °F 90.4 °F 69.8 °F 58% 29.86 in 6.2 mi ENE 11.5 mph - N/A   Partly Cloudy
3:00 PM 85 °F - 71 °F 53% 29.88 in 19 mi ENE 10.4 mph - -   Partly Cloudy
3:00 PM 84.2 °F 88.4 °F 69.8 °F 62% 29.86 in 6.2 mi ENE 10.4 mph - N/A   Scattered Clouds
3:30 PM 84.2 °F 88.4 °F 69.8 °F 62% 29.86 in 6.2 mi ENE 12.7 mph - N/A   Mostly Cloudy
4:00 PM 85 °F - 69 °F 49% 29.88 in - East 10.4 mph - -  
4:00 PM 86.0 °F 89.4 °F 68.0 °F 55% 29.86 in 6.2 mi East 10.4 mph - N/A   Scattered Clouds
4:30 PM 84.2 °F 86.6 °F 66.2 °F 55% 29.89 in 6.2 mi East 10.4 mph - N/A   Partly Cloudy
5:00 PM 84.2 °F 86.6 °F 66.2 °F 55% 29.89 in 6.2 mi East 10.4 mph - N/A   Scattered Clouds
5:30 PM 82.4 °F 85.4 °F 68.0 °F 62% 29.89 in 6.2 mi ENE 6.9 mph - N/A   Partly Cloudy
6:00 PM 82 °F - 69 °F 57% 29.92 in - NE 6.9 mph - -  
6:00 PM 82.4 °F 86.3 °F 69.8 °F 66% 29.92 in 6.2 mi NE 6.9 mph - N/A   Scattered Clouds
6:30 PM 80.6 °F 83.9 °F 69.8 °F 70% 29.92 in 6.2 mi ENE 8.1 mph - N/A   Mostly Cloudy
7:00 PM 80 °F - 69 °F 61% 29.95 in - West 5.8 mph - -  
7:00 PM 80.6 °F 83.9 °F 69.8 °F 70% 29.95 in 6.2 mi West 5.8 mph - N/A   Mostly Cloudy
7:30 PM 78.8 °F - 69.8 °F 74% 29.95 in 6.2 mi North 3.5 mph - N/A   Mostly Cloudy
8:00 PM 78.8 °F - 69.8 °F 74% 29.95 in 6.2 mi WSW 1.2 mph - N/A   Mostly Cloudy
8:30 PM 78.8 °F - 71.6 °F 78% 29.98 in 6.2 mi Calm Calm - N/A   Mostly Cloudy
9:00 PM 77 °F - 71 °F 76% 29.98 in - Calm Calm - -  
9:00 PM 77.0 °F - 71.6 °F 83% 29.98 in 6.2 mi Calm Calm - N/A   Mostly Cloudy
9:30 PM 77.0 °F - 69.8 °F 78% 29.98 in 6.2 mi Calm Calm - N/A   Partly Cloudy
10:00 PM 76 °F - 70 °F 78% 29.98 in - West 4.6 mph - -  
10:00 PM 75.2 °F - 69.8 °F 83% 29.98 in 6.2 mi West 4.6 mph - N/A   Partly Cloudy
10:30 PM 75.2 °F - 69.8 °F 83% 29.98 in 6.2 mi West 5.8 mph - N/A   Partly Cloudy
11:00 PM 75.2 °F - 69.8 °F 83% 29.95 in 6.2 mi West 4.6 mph - N/A   Partly Cloudy
11:30 PM 75.2 °F - 69.8 °F 83% 29.95 in 6.2 mi West 3.5 mph - N/A   Partly Cloudy